Change the Weather History Date:

Friday, March 8, 2013

  Actual Average Record
Temperature  
Mean Temperature 40 °F -  
Max Temperature 46 °F 43 °F 84 °F (2000)
Min Temperature 35 °F 27 °F 7 °F (2007)
Degree Days  
Heating Degree Days 24    
Moisture  
Dew Point 21 °F    
Average Humidity 48    
Maximum Humidity 59    
Minimum Humidity 40    
Precipitation  
Precipitation 0.00 in - - ()
Sea Level Pressure  
Sea Level Pressure 30.21 in    
Wind  
Wind Speed 11 mph (NNW)    
Max Wind Speed 20 mph    
Max Gust Speed 32 mph    
Visibility 10 miles    
Events      
Averages and records for this station are not official NWS values.
T = Trace of Precipitation, MM = Missing Value Source: NWS Daily Summary

Daily Weather History Graph

Daily Weather History Graph

Search for Another Location

Airport or City:

Trip Planner

Search our weather history database for the weather conditions in past years. The results will help you decide how hot, cold, wet, or windy it might be!

Date:

Astronomy

Mar. 08, 2013 Rise Set
Actual Time 6:29 AM EST 6:07 PM EST
Civil Twilight 6:02 AM EST 6:34 PM EST
Nautical Twilight 5:31 AM EST 7:05 PM EST
Astronomical Twilight 4:59 AM EST 7:37 PM EST
Moon 4:12 AM EST (3/8) 2:59 PM EST (3/8)
Length of Visible Light 12h 31m
Length of Day
11h 37m
Waning Crescent, 12% of the Moon is Illuminated
Mar 8
Waning Crescent
Mar 11
New
Mar 19
First Quarter
Mar 27
Full
Apr 3
Last Quarter

Hourly Weather History & Observations

Time (EST) Temp. Windchill Dew Point Humidity Pressure Visibility Wind Dir Wind Speed Gust Speed Precip Events Conditions
12:56 AM 37.0 °F 33.3 °F 21.0 °F 52% 30.16 in 10.0 mi North 4.6 mph - N/A   Clear
1:56 AM 35.1 °F 29.3 °F 21.9 °F 59% 30.16 in 10.0 mi NW 6.9 mph - N/A   Clear
2:56 AM 36.0 °F 28.0 °F 19.9 °F 52% 30.16 in 10.0 mi NNW 11.5 mph - N/A   Clear
3:56 AM 36.0 °F 28.0 °F 21.0 °F 55% 30.15 in 10.0 mi NNW 11.5 mph 19.6 mph N/A   Overcast
4:56 AM 36.0 °F 28.0 °F 21.9 °F 57% 30.15 in 10.0 mi NNW 11.5 mph 19.6 mph N/A   Overcast
5:56 AM 36.0 °F 28.0 °F 19.9 °F 52% 30.16 in 10.0 mi NNW 11.5 mph 25.3 mph N/A   Overcast
6:56 AM 35.1 °F 25.2 °F 19.0 °F 52% 30.19 in 10.0 mi North 16.1 mph 25.3 mph N/A   Overcast
7:56 AM 35.1 °F 24.8 °F 19.0 °F 52% 30.20 in 10.0 mi NNW 17.3 mph 27.6 mph N/A   Mostly Cloudy
8:56 AM 36.0 °F 25.3 °F 19.9 °F 52% 30.20 in 10.0 mi NNW 19.6 mph 31.1 mph N/A   Scattered Clouds
9:56 AM 37.9 °F 28.9 °F 19.9 °F 48% 30.21 in 10.0 mi North 16.1 mph 32.2 mph N/A   Scattered Clouds
10:56 AM 39.9 °F 31.8 °F 21.0 °F 47% 30.21 in 10.0 mi NW 15.0 mph 27.6 mph N/A   Scattered Clouds
11:56 AM 41.0 °F 32.8 °F 21.0 °F 45% 30.20 in 10.0 mi NNW 16.1 mph 24.2 mph N/A   Partly Cloudy
12:56 PM 43.0 °F 36.0 °F 21.9 °F 43% 30.18 in 10.0 mi NNW 13.8 mph 23.0 mph N/A   Mostly Cloudy
1:56 PM 45.0 °F 38.2 °F 23.0 °F 42% 30.17 in 10.0 mi NNW 15.0 mph 21.9 mph N/A   Overcast
2:56 PM 46.0 °F 39.9 °F 24.1 °F 42% 30.19 in 10.0 mi NNW 13.8 mph 26.5 mph N/A   Overcast
3:56 PM 46.0 °F 39.9 °F 24.1 °F 42% 30.20 in 10.0 mi North 13.8 mph 24.2 mph N/A   Clear
4:56 PM 46.9 °F - 24.1 °F 41% 30.22 in 10.0 mi North 12.7 mph 21.9 mph N/A   Mostly Cloudy
5:56 PM 46.0 °F 41.4 °F 23.0 °F 40% 30.24 in 10.0 mi North 9.2 mph - N/A   Mostly Cloudy
6:56 PM 45.0 °F 40.1 °F 23.0 °F 42% 30.27 in 10.0 mi North 9.2 mph - N/A   Clear
7:56 PM 44.1 °F 38.6 °F 21.9 °F 42% 30.27 in 10.0 mi NNW 10.4 mph 23.0 mph N/A   Partly Cloudy
8:56 PM 43.0 °F 35.7 °F 21.0 °F 42% 30.30 in 10.0 mi NNW 15.0 mph 23.0 mph N/A   Scattered Clouds
9:56 PM 41.0 °F 35.8 °F 21.0 °F 45% 30.31 in 10.0 mi NW 8.1 mph - N/A   Clear
10:56 PM 39.9 °F 35.8 °F 21.0 °F 47% 30.31 in 10.0 mi North 5.8 mph - N/A   Clear
11:56 PM 39.0 °F 34.0 °F 21.0 °F 49% 30.32 in 10.0 mi North 6.9 mph - N/A   Clear